Location: Newark
(45.7114°N, 9.7358°E)
Time: 00:52:09
(UTC+00:00)

Envisat - Visible Passes

Search period start: 14 October 2019 00:00
Search period end: 24 October 2019 00:00
Orbit: 764 x 766 km, 98.1° (Epoch: 13 October)

Date Brightness Start Highest point End Pass type
(mag) Time Alt. Az. Time Alt. Az. Time Alt. Az.
14 Oct 6.3 04:59:41 10° NE 05:02:24 14° E 05:05:06 10° ESE visible
14 Oct 4.1 17:53:58 10° S 17:58:50 46° W 18:03:45 10° NNW visible
15 Oct 3.0 17:16:56 10° SSE 17:22:00 83° ENE 17:27:07 10° NNW visible
15 Oct 6.1 18:59:23 10° WSW 19:01:41 13° W 19:04:00 10° WNW visible
16 Oct 5.1 18:20:12 10° SSW 18:24:30 28° W 18:28:51 10° NW visible
17 Oct 6.7 04:49:30 10° ENE 04:50:59 11° E 04:52:28 10° ESE visible
17 Oct 3.7 17:42:32 10° S 17:47:32 58° W 17:52:34 10° NNW visible
18 Oct 3.0 17:05:44 10° SSE 17:10:46 67° ENE 17:15:50 10° N visible
18 Oct 5.9 18:47:06 10° SW 18:50:17 16° W 18:53:28 10° NW visible
19 Oct 4.7 18:08:34 10° SSW 18:13:10 34° W 18:17:48 10° NNW visible
20 Oct 3.3 17:31:11 10° S 17:36:15 73° WSW 17:41:21 10° NNW visible
21 Oct 3.1 16:54:37 10° SSE 16:59:32 54° ENE 17:04:30 10° N visible
21 Oct 5.6 18:35:08 10° SW 18:38:53 21° W 18:42:39 10° NW visible
22 Oct 6.2 05:02:24 10° NE 05:05:26 16° E 05:08:26 10° SE visible
22 Oct 4.3 17:57:01 10° S 18:01:49 43° W 18:06:41 10° NNW visible
23 Oct 3.0 17:19:54 10° SSE 17:24:59 90° SE 17:30:06 10° NNW visible
23 Oct 6.2 19:02:53 10° WSW 19:04:43 12° W 19:06:34 10° WNW visible
